TITAN 3C TRANSTAGE DEB, 43514

Orbit data source: Space-Track

TITAN 3C TRANSTAGE DEB, 43514 is space debris in GEO originally from a launch on Sun, 09 Feb 1969 UTC launched from the Air Force Eastern Test Range (AFETR). Debris objects in space refer to the collection of defunct objects orbiting the Earth. Examples of debris include non-operational satellites, rocket bodies, and fragments generated from explosions, collisions, or faulty payload assembly.

Loading next visibility...
Identifier
43514, 1969-013S
Orbit
GEO
Country
Flag of USUS
Related business
Manufacturer
Martin Marietta
Mission
Spacecraft
Bus & Motor
Unknown
Mass
Unknown
Launch date (UTC)
1969-02-09 (57 years ago)
Launch vehicle
Unknown
Launch site
Air Force Eastern Test Range (AFETR)
Object type
Payload
Rocket body
Debris
Shape & HBR
Unknown shape, 1.1 m
Radar Cross Section
RCS unknown

Expand to show TLE details & history
Last TLE update: 2 days ago

TLE from 2 days ago
0 TITAN 3C TRANSTAGE DEB
1 43514U 69013S   25287.29297759 -.00000048  00000-0  00000-0 0  9993
2 43514   0.9445  52.0243 0201992  62.4363 247.6665  0.97797948875954
Epoch: 2025-10-14T07:01Z
TLE epoch observation values (Epoch: 2025-10-14T07:01:53.263Z)
Latitude
-0.73473°
Longitude
-128.5519°
Altitude
36,837.832 km
Speed
3.025 km/s
True Right ascension
00h 00m 00s
True Declination
0° 44' 02"
Sunlit
Object was in daylight at epoch
Visualization orbit readout
Latitude
Unknown
Longitude
Unknown
Altitude
Unknown
Speed
Unknown
Apparent Right ascension
Unknown
Apparent Declination
Unknown
Sunlit
N/A
Visualization observer readout
Local Sidereal Time
01:16:35
Azimuth
Unknown
Elevation
Unknown
Doppler factor
Unknown
Orbital elements
Apogee altitude
37,361.751 km
Perigee altitude
35,629.715 km
Semi-major axis
42,873.87 km
Eccentricity
0.0202
Inclination
0.9445°
RAAN
52.0243°
Arg. of periapsis
62.4363°
True anomaly
245.54631°
Mean anomaly
247.6665°
Eccentric anomaly
246.60432°
Mean motion
0.24449 °/min
Orbital period
1,472.48 mins
BSTAR
0
Loading maneuver chart data...
Computing Atmospheric mass density...

Documentation

Showing up to 5 results
|